Location: Unspecified
(43.4354°N, 0.0000°E)
Time: 18:57:31
(UTC+00:00)

Tiros 1 despin weight - Pass Details

Date: 01 July 2019
Orbit: 594 x 642 km, 48.2° (Epoch: 20 July)

Event Time Altitude Azimuth Distance (km) Brightness Sun altitude
Rises 21:24:24 0° 269° (W) 2,878 ? -14.1°
Reaches altitude 10° 21:26:47 10° 274° (W) 1,966 ? -14.3°
Maximum altitude 21:31:10 49° 350° (N) 781 ? -14.8°
Drops below altitude 10° 21:35:30 10° 66° (ENE) 1,942 ? -15.3°
Sets 21:37:50 0° 72° (ENE) 2,840 ? -15.5°
